Location: Lombard
(41.8800°N, 88.0078°W)
Time: 14:32:57
(UTC-06:00)

ISS - Visible Passes

Search period start: 19 January 2026 00:00
Search period end: 29 January 2026 00:00
Orbit: 413 x 424 km, 51.6° (Epoch: 19 January)

Date Brightness Start Highest point End Pass type
(mag) Time Alt. Az. Time Alt. Az. Time Alt. Az.
19 Jan -1.7 17:51:45 10° NW 17:54:06 18° N 17:56:02 12° NNE visible
20 Jan -1.4 18:41:36 10° NW 18:43:05 15° N 18:43:05 15° N visible
21 Jan -1.6 17:53:32 10° NW 17:55:36 15° N 17:57:11 12° NNE visible
22 Jan -1.6 18:42:37 10° NW 18:44:14 18° N 18:44:14 18° N visible
23 Jan -1.8 17:54:44 10° NW 17:57:01 17° N 17:58:21 14° NE visible
23 Jan -0.5 19:31:11 10° NW 19:31:18 11° NW 19:31:18 11° NW visible
24 Jan -2.3 18:43:20 10° NW 18:45:29 27° N 18:45:29 27° N visible
25 Jan -2.4 17:55:28 10° NW 17:58:15 24° NNE 17:59:44 18° ENE visible
25 Jan -0.8 19:31:57 10° WNW 19:32:41 15° WNW 19:32:41 15° WNW visible
26 Jan -3.7 18:43:58 10° NW 18:47:01 65° N 18:47:01 65° N visible
27 Jan -3.3 17:56:00 10° NW 17:59:13 44° NNE 18:01:31 17° E visible
27 Jan -1.0 19:33:05 10° W 19:34:29 18° W 19:34:29 18° W visible
28 Jan -2.6 18:44:44 10° WNW 18:47:55 41° SW 18:49:10 28° S visible
